Year,Month,Day,Hour,Minute,Value (Times are PST for windgust in km/hr)
2010,06,02,00,00,25.70
2010,06,02,00,01,16.10
2010,06,02,00,02,14.50
2010,06,02,00,03,16.10
2010,06,02,00,04,17.70
2010,06,02,00,05,20.90
2010,06,02,00,06,19.30
2010,06,02,00,07,20.90
2010,06,02,00,08,17.70
2010,06,02,00,09,16.10
2010,06,02,00,10,17.70
2010,06,02,00,11,17.70
2010,06,02,00,12,20.90
2010,06,02,00,13,17.70
2010,06,02,00,14,16.10
2010,06,02,00,15,17.70
2010,06,02,00,16,19.30
2010,06,02,00,17,17.70
2010,06,02,00,18,19.30
2010,06,02,00,19,14.50
2010,06,02,00,20,14.50
2010,06,02,00,21,11.30
2010,06,02,00,22,24.20
2010,06,02,00,23,16.10
2010,06,02,00,24,14.50
2010,06,02,00,25,20.90
2010,06,02,00,26,17.70
2010,06,02,00,27,11.30
2010,06,02,00,28,16.10
2010,06,02,00,29,9.60
2010,06,02,00,30,9.60
2010,06,02,00,31,11.30
2010,06,02,00,32,11.30
2010,06,02,00,33,14.50
2010,06,02,00,34,17.70
2010,06,02,00,35,17.70
2010,06,02,00,36,14.50
2010,06,02,00,37,16.10
2010,06,02,00,38,8.10
2010,06,02,00,39,16.10
2010,06,02,00,40,22.50
2010,06,02,00,41,17.70
2010,06,02,00,42,14.50
2010,06,02,00,43,14.50
2010,06,02,00,44,19.30
2010,06,02,00,45,19.30
2010,06,02,00,46,20.90
2010,06,02,00,47,17.70
2010,06,02,00,48,14.50
2010,06,02,00,49,14.50
2010,06,02,00,50,9.60
2010,06,02,00,51,11.30
2010,06,02,00,52,17.70
2010,06,02,00,53,19.30
2010,06,02,00,54,11.30
2010,06,02,00,55,9.60
2010,06,02,00,56,14.50
2010,06,02,00,57,9.60
2010,06,02,00,58,8.10
2010,06,02,00,59,6.40
2010,06,02,01,00,16.10
2010,06,02,01,01,8.10
2010,06,02,01,02,9.60
2010,06,02,01,03,11.30
2010,06,02,01,04,19.30
2010,06,02,01,05,16.10
2010,06,02,01,06,12.90
2010,06,02,01,07,8.10
2010,06,02,01,08,9.60
2010,06,02,01,09,9.60
2010,06,02,01,10,9.60
2010,06,02,01,11,17.70
2010,06,02,01,12,9.60
2010,06,02,01,13,11.30
2010,06,02,01,14,11.30
2010,06,02,01,15,9.60
2010,06,02,01,16,9.60
2010,06,02,01,17,8.10
2010,06,02,01,18,19.30
2010,06,02,01,19,14.50
2010,06,02,01,20,11.30
2010,06,02,01,21,22.50
2010,06,02,01,22,17.70
2010,06,02,01,23,16.10
2010,06,02,01,24,14.50
2010,06,02,01,25,9.60
2010,06,02,01,26,8.10
2010,06,02,01,27,4.80
2010,06,02,01,28,8.10
2010,06,02,01,29,6.40
2010,06,02,01,30,8.10
2010,06,02,01,31,9.60
2010,06,02,01,32,9.60
2010,06,02,01,33,9.60
2010,06,02,01,34,12.90
2010,06,02,01,35,9.60
2010,06,02,01,36,14.50
2010,06,02,01,37,14.50
2010,06,02,01,38,11.30
2010,06,02,01,39,14.50
2010,06,02,01,40,16.10
2010,06,02,01,41,14.50
2010,06,02,01,42,9.60
2010,06,02,01,43,6.40
2010,06,02,01,44,11.30
2010,06,02,01,45,14.50
2010,06,02,01,46,12.90
2010,06,02,01,47,20.90
2010,06,02,01,48,19.30
2010,06,02,01,49,14.50
2010,06,02,01,50,12.90
2010,06,02,01,51,9.60
2010,06,02,01,52,11.30
2010,06,02,01,53,9.60
2010,06,02,01,54,11.30
2010,06,02,01,55,8.10
2010,06,02,01,56,6.40
2010,06,02,01,57,9.60
2010,06,02,01,58,8.10
2010,06,02,01,59,8.10
2010,06,02,02,00,9.60
2010,06,02,02,01,11.30
2010,06,02,02,02,9.60
2010,06,02,02,03,8.10
2010,06,02,02,04,9.60
2010,06,02,02,05,8.10
2010,06,02,02,06,9.60
2010,06,02,02,07,9.60
2010,06,02,02,08,9.60
2010,06,02,02,09,8.10
2010,06,02,02,10,1.60
2010,06,02,02,12,3.20
2010,06,02,02,13,3.20
2010,06,02,02,14,3.20
2010,06,02,02,15,1.60
2010,06,02,02,16,3.20
2010,06,02,02,17,3.20
2010,06,02,02,18,1.60
2010,06,02,02,19,4.80
2010,06,02,02,31,4.80
2010,06,02,02,32,1.60
2010,06,02,02,33,1.60
2010,06,02,02,35,1.60
2010,06,02,02,36,3.20
2010,06,02,02,37,1.60
2010,06,02,02,38,3.20
2010,06,02,02,42,4.80
2010,06,02,02,43,3.20
2010,06,02,02,44,1.60
2010,06,02,02,45,1.60
2010,06,02,02,49,1.60
2010,06,02,02,50,3.20
2010,06,02,02,51,1.60
2010,06,02,02,53,4.80
2010,06,02,02,54,3.20
2010,06,02,02,55,4.80
2010,06,02,02,56,3.20
2010,06,02,02,57,4.80
2010,06,02,02,58,4.80
2010,06,02,02,59,4.80
2010,06,02,03,00,3.20
2010,06,02,03,01,4.80
2010,06,02,03,02,4.80
2010,06,02,03,03,3.20
2010,06,02,03,04,3.20
2010,06,02,03,05,3.20
2010,06,02,03,06,4.80
2010,06,02,03,07,4.80
2010,06,02,03,08,6.40
2010,06,02,03,09,6.40
2010,06,02,03,10,6.40
2010,06,02,03,11,8.10
2010,06,02,03,12,8.10
2010,06,02,03,13,3.20
2010,06,02,03,14,3.20
2010,06,02,03,15,4.80
2010,06,02,03,16,3.20
2010,06,02,03,17,3.20
2010,06,02,03,18,4.80
2010,06,02,03,19,1.60
2010,06,02,03,20,1.60
2010,06,02,03,21,3.20
2010,06,02,03,23,4.80
2010,06,02,03,24,3.20
2010,06,02,03,25,1.60
2010,06,02,03,26,1.60
2010,06,02,03,27,4.80
2010,06,02,03,28,4.80
2010,06,02,03,29,4.80
2010,06,02,03,30,1.60
2010,06,02,03,31,4.80
2010,06,02,03,32,4.80
2010,06,02,03,33,1.60
2010,06,02,03,34,1.60
2010,06,02,03,35,4.80
2010,06,02,03,36,4.80
2010,06,02,03,37,1.60
2010,06,02,03,38,1.60
2010,06,02,03,39,1.60
2010,06,02,03,40,1.60
2010,06,02,03,41,4.80
2010,06,02,03,42,4.80
2010,06,02,03,45,1.60
2010,06,02,03,57,1.60
2010,06,02,03,58,6.40
2010,06,02,03,59,4.80
2010,06,02,04,00,1.60
2010,06,02,04,01,1.60
2010,06,02,04,05,1.60
2010,06,02,04,06,3.20
2010,06,02,04,07,3.20
2010,06,02,04,08,1.60
2010,06,02,04,09,1.60
2010,06,02,04,10,1.60
2010,06,02,04,11,3.20
2010,06,02,04,12,6.40
2010,06,02,04,13,6.40
2010,06,02,04,14,1.60
2010,06,02,04,15,1.60
2010,06,02,04,17,1.60
2010,06,02,04,18,3.20
2010,06,02,04,23,1.60
2010,06,02,04,24,1.60
2010,06,02,04,25,1.60
2010,06,02,04,26,1.60
2010,06,02,04,27,3.20
2010,06,02,04,28,1.60
2010,06,02,04,29,1.60
2010,06,02,04,30,3.20
2010,06,02,04,33,1.60
2010,06,02,04,34,4.80
2010,06,02,04,35,6.40
2010,06,02,04,36,1.60
2010,06,02,04,37,1.60
2010,06,02,04,38,3.20
2010,06,02,04,41,1.60
2010,06,02,04,42,1.60
2010,06,02,04,43,3.20
2010,06,02,04,44,4.80
2010,06,02,04,45,1.60
2010,06,02,04,50,3.20
2010,06,02,04,51,3.20
2010,06,02,04,52,1.60
2010,06,02,04,54,4.80
2010,06,02,04,55,4.80
2010,06,02,04,56,4.80
2010,06,02,04,57,4.80
2010,06,02,04,58,4.80
2010,06,02,04,59,4.80
2010,06,02,05,00,4.80
2010,06,02,05,01,6.40
2010,06,02,05,02,4.80
2010,06,02,05,03,4.80
2010,06,02,05,04,6.40
2010,06,02,05,05,4.80
2010,06,02,05,06,6.40
2010,06,02,05,07,4.80
2010,06,02,05,08,1.60
2010,06,02,05,09,6.40
2010,06,02,05,10,4.80
2010,06,02,05,11,4.80
2010,06,02,05,12,6.40
2010,06,02,05,13,4.80
2010,06,02,05,14,4.80
2010,06,02,05,15,1.60
2010,06,02,05,16,3.20
2010,06,02,05,17,4.80
2010,06,02,05,18,8.10
2010,06,02,05,19,8.10
2010,06,02,05,20,6.40
2010,06,02,05,21,3.20
2010,06,02,05,22,4.80
2010,06,02,05,23,4.80
2010,06,02,05,24,1.60
2010,06,02,05,25,1.60
2010,06,02,05,26,8.10
2010,06,02,05,27,6.40
2010,06,02,05,28,6.40
2010,06,02,05,29,4.80
2010,06,02,05,30,8.10
2010,06,02,05,31,9.60
2010,06,02,05,32,3.20
2010,06,02,05,33,4.80
2010,06,02,05,34,6.40
2010,06,02,05,35,1.60
2010,06,02,05,36,8.10
2010,06,02,05,37,6.40
2010,06,02,05,38,6.40
2010,06,02,05,39,4.80
2010,06,02,05,40,8.10
2010,06,02,05,41,6.40
2010,06,02,05,42,8.10
2010,06,02,05,43,9.60
2010,06,02,05,44,6.40
2010,06,02,05,45,6.40
2010,06,02,05,46,9.60
2010,06,02,05,47,6.40
2010,06,02,05,48,6.40
2010,06,02,05,49,4.80
2010,06,02,05,50,8.10
2010,06,02,05,51,6.40
2010,06,02,05,52,9.60
2010,06,02,05,53,9.60
2010,06,02,05,54,11.30
2010,06,02,05,55,11.30
2010,06,02,05,56,8.10
2010,06,02,05,57,11.30
2010,06,02,05,58,11.30
2010,06,02,05,59,9.60
2010,06,02,06,00,9.60
2010,06,02,06,01,9.60
2010,06,02,06,02,11.30
2010,06,02,06,03,12.90
2010,06,02,06,04,8.10
2010,06,02,06,05,9.60
2010,06,02,06,06,9.60
2010,06,02,06,07,11.30
2010,06,02,06,08,6.40
2010,06,02,06,09,4.80
2010,06,02,06,10,3.20
2010,06,02,06,11,8.10
2010,06,02,06,12,6.40
2010,06,02,06,13,3.20
2010,06,02,06,14,8.10
2010,06,02,06,15,8.10
2010,06,02,06,16,6.40
2010,06,02,06,17,9.60
2010,06,02,06,18,6.40
2010,06,02,06,19,4.80
2010,06,02,06,20,11.30
2010,06,02,06,21,11.30
2010,06,02,06,22,8.10
2010,06,02,06,23,4.80
2010,06,02,06,24,6.40
2010,06,02,06,25,4.80
2010,06,02,06,26,6.40
2010,06,02,06,27,8.10
2010,06,02,06,28,8.10
2010,06,02,06,29,8.10
2010,06,02,06,30,8.10
2010,06,02,06,31,8.10
2010,06,02,06,32,8.10
2010,06,02,06,33,6.40
2010,06,02,06,34,3.20
2010,06,02,06,35,3.20
2010,06,02,06,36,6.40
2010,06,02,06,37,9.60
2010,06,02,06,38,4.80
2010,06,02,06,39,6.40
2010,06,02,06,40,6.40
2010,06,02,06,41,4.80
2010,06,02,06,43,1.60
2010,06,02,06,44,4.80
2010,06,02,06,45,1.60
2010,06,02,06,46,4.80
2010,06,02,06,47,3.20
2010,06,02,06,48,4.80
2010,06,02,06,49,6.40
2010,06,02,06,50,4.80
2010,06,02,06,51,3.20
2010,06,02,06,52,1.60
2010,06,02,06,53,1.60
2010,06,02,06,56,4.80
2010,06,02,06,57,4.80
2010,06,02,06,58,4.80
2010,06,02,06,59,4.80
2010,06,02,07,00,3.20
2010,06,02,07,01,1.60
2010,06,02,07,02,1.60
2010,06,02,07,03,3.20
2010,06,02,07,04,3.20
2010,06,02,07,05,3.20
2010,06,02,07,06,3.20
2010,06,02,07,07,4.80
2010,06,02,07,08,3.20
2010,06,02,07,09,6.40
2010,06,02,07,10,4.80
2010,06,02,07,11,1.60
2010,06,02,07,12,4.80
2010,06,02,07,13,3.20
2010,06,02,07,14,4.80
2010,06,02,07,16,1.60
2010,06,02,07,20,1.60
2010,06,02,07,21,1.60
2010,06,02,07,23,4.80
2010,06,02,07,24,3.20
2010,06,02,07,25,3.20
2010,06,02,07,26,1.60
2010,06,02,07,27,4.80
2010,06,02,07,28,3.20
2010,06,02,07,29,3.20
2010,06,02,07,30,4.80
2010,06,02,07,31,4.80
2010,06,02,07,32,4.80
2010,06,02,07,33,4.80
2010,06,02,07,34,4.80
2010,06,02,07,35,6.40
2010,06,02,07,36,4.80
2010,06,02,07,37,8.10
2010,06,02,07,38,4.80
2010,06,02,07,39,1.60
2010,06,02,07,40,3.20
2010,06,02,07,41,4.80
2010,06,02,07,42,3.20
2010,06,02,07,43,3.20
2010,06,02,07,44,4.80
2010,06,02,07,45,4.80
2010,06,02,07,46,6.40
2010,06,02,07,47,6.40
2010,06,02,07,48,4.80
2010,06,02,07,49,4.80
2010,06,02,07,50,3.20
2010,06,02,07,51,3.20
2010,06,02,07,52,3.20
2010,06,02,07,53,1.60
2010,06,02,07,54,8.10
2010,06,02,07,55,8.10
2010,06,02,07,56,8.10
2010,06,02,07,57,4.80
2010,06,02,07,58,3.20
2010,06,02,07,59,9.60
2010,06,02,08,00,8.10
2010,06,02,08,01,6.40
2010,06,02,08,02,4.80
2010,06,02,08,03,4.80
2010,06,02,08,04,6.40
2010,06,02,08,05,6.40
2010,06,02,08,06,4.80
2010,06,02,08,07,4.80
2010,06,02,08,08,6.40
2010,06,02,08,09,4.80
2010,06,02,08,10,1.60
2010,06,02,08,11,1.60
2010,06,02,08,12,1.60
2010,06,02,08,13,1.60
2010,06,02,08,14,4.80
2010,06,02,08,15,4.80
2010,06,02,08,16,6.40
2010,06,02,08,17,6.40
2010,06,02,08,18,4.80
2010,06,02,08,19,6.40
2010,06,02,08,20,8.10
2010,06,02,08,21,6.40
2010,06,02,08,22,4.80
2010,06,02,08,23,6.40
2010,06,02,08,24,8.10
2010,06,02,08,25,16.10
2010,06,02,08,26,11.30
2010,06,02,08,27,4.80
2010,06,02,08,28,1.60
2010,06,02,08,29,6.40
2010,06,02,08,30,8.10
2010,06,02,08,31,6.40
2010,06,02,08,32,9.60
2010,06,02,08,33,6.40
2010,06,02,08,34,4.80
2010,06,02,08,35,6.40
2010,06,02,08,36,8.10
2010,06,02,08,37,6.40
2010,06,02,08,38,3.20
2010,06,02,08,39,3.20
2010,06,02,08,40,4.80
2010,06,02,08,41,3.20
2010,06,02,08,42,8.10
2010,06,02,08,43,6.40
2010,06,02,08,44,8.10
2010,06,02,08,45,4.80
2010,06,02,08,46,6.40
2010,06,02,08,47,6.40
2010,06,02,08,48,6.40
2010,06,02,08,49,9.60
2010,06,02,08,50,8.10
2010,06,02,08,51,6.40
2010,06,02,08,52,8.10
2010,06,02,08,53,6.40
2010,06,02,08,54,11.30
2010,06,02,08,55,9.60
2010,06,02,08,56,8.10
2010,06,02,08,57,6.40
2010,06,02,08,58,8.10
2010,06,02,08,59,4.80
2010,06,02,09,00,6.40
2010,06,02,09,01,8.10
2010,06,02,09,02,8.10
2010,06,02,09,03,14.50
2010,06,02,09,04,6.40
2010,06,02,09,05,8.10
2010,06,02,09,06,9.60
2010,06,02,09,07,8.10
2010,06,02,09,08,8.10
2010,06,02,09,09,4.80
2010,06,02,09,10,1.60
2010,06,02,09,11,1.60
2010,06,02,09,12,4.80
2010,06,02,09,13,1.60
2010,06,02,09,14,3.20
2010,06,02,09,15,1.60
2010,06,02,09,16,8.10
2010,06,02,09,17,3.20
2010,06,02,09,18,4.80
2010,06,02,09,19,1.60
2010,06,02,09,20,1.60
2010,06,02,09,21,4.80
2010,06,02,09,22,3.20
2010,06,02,09,23,6.40
2010,06,02,09,24,6.40
2010,06,02,09,25,4.80
2010,06,02,09,28,1.60
2010,06,02,09,29,3.20
2010,06,02,09,30,4.80
2010,06,02,09,31,6.40
2010,06,02,09,32,4.80
2010,06,02,09,33,4.80
2010,06,02,09,34,6.40
2010,06,02,09,35,8.10
2010,06,02,09,36,4.80
2010,06,02,09,37,6.40
2010,06,02,09,38,3.20
2010,06,02,09,39,3.20
2010,06,02,09,40,1.60
2010,06,02,09,41,3.20
2010,06,02,09,42,1.60
2010,06,02,09,43,4.80
2010,06,02,09,44,3.20
2010,06,02,09,45,1.60
2010,06,02,09,46,1.60
2010,06,02,09,55,1.60
2010,06,02,09,56,1.60
2010,06,02,09,59,1.60
2010,06,02,10,00,1.60
2010,06,02,10,03,4.80
2010,06,02,10,04,6.40
2010,06,02,10,05,3.20
2010,06,02,10,06,4.80
2010,06,02,10,07,3.20
2010,06,02,10,08,4.80
2010,06,02,10,09,1.60
2010,06,02,10,10,3.20
2010,06,02,10,11,3.20
2010,06,02,10,12,3.20
2010,06,02,10,13,3.20
2010,06,02,10,14,1.60
2010,06,02,10,15,4.80
2010,06,02,10,16,3.20
2010,06,02,10,17,3.20
2010,06,02,10,18,4.80
2010,06,02,10,19,1.60
2010,06,02,10,20,3.20
2010,06,02,10,22,3.20
2010,06,02,10,23,4.80
2010,06,02,10,24,1.60
2010,06,02,10,25,4.80
2010,06,02,10,26,4.80
2010,06,02,10,27,3.20
2010,06,02,10,28,3.20
2010,06,02,10,29,4.80
2010,06,02,10,30,3.20
2010,06,02,10,31,3.20
2010,06,02,10,32,1.60
2010,06,02,10,34,3.20
2010,06,02,10,35,3.20
2010,06,02,10,36,1.60
2010,06,02,10,37,4.80
2010,06,02,10,38,6.40
2010,06,02,10,43,1.60
2010,06,02,10,44,1.60
2010,06,02,10,45,3.20
2010,06,02,10,46,1.60
2010,06,02,10,47,3.20
2010,06,02,10,48,1.60
2010,06,02,10,49,6.40
2010,06,02,10,50,8.10
2010,06,02,10,51,8.10
2010,06,02,10,52,9.60
2010,06,02,10,53,6.40
2010,06,02,10,54,1.60
2010,06,02,10,57,4.80
2010,06,02,10,58,4.80
2010,06,02,10,59,3.20
2010,06,02,11,00,4.80
2010,06,02,11,01,3.20
2010,06,02,11,02,6.40
2010,06,02,11,03,6.40
2010,06,02,11,04,3.20
2010,06,02,11,05,3.20
2010,06,02,11,06,3.20
2010,06,02,11,08,1.60
2010,06,02,11,09,1.60
2010,06,02,11,10,4.80
2010,06,02,11,11,4.80
2010,06,02,11,12,4.80
2010,06,02,11,13,6.40
2010,06,02,11,14,3.20
2010,06,02,11,15,6.40
2010,06,02,11,16,4.80
2010,06,02,11,17,8.10
2010,06,02,11,18,6.40
2010,06,02,11,19,3.20
2010,06,02,11,20,6.40
2010,06,02,11,21,8.10
2010,06,02,11,22,8.10
2010,06,02,11,23,9.60
2010,06,02,11,24,6.40
2010,06,02,11,25,6.40
2010,06,02,11,26,4.80
2010,06,02,11,27,3.20
2010,06,02,11,28,1.60
2010,06,02,11,30,3.20
2010,06,02,11,31,3.20
2010,06,02,11,32,4.80
2010,06,02,11,33,3.20
2010,06,02,11,35,6.40
2010,06,02,11,36,4.80
2010,06,02,11,37,6.40
2010,06,02,11,38,3.20
2010,06,02,11,39,3.20
2010,06,02,11,40,4.80
2010,06,02,11,41,6.40
2010,06,02,11,42,4.80
2010,06,02,11,43,6.40
2010,06,02,11,44,4.80
2010,06,02,11,45,4.80
2010,06,02,11,46,4.80
2010,06,02,11,47,6.40
2010,06,02,11,48,6.40
2010,06,02,11,49,4.80
2010,06,02,11,50,4.80
2010,06,02,11,51,4.80
2010,06,02,11,52,4.80
2010,06,02,11,53,1.60
2010,06,02,11,54,4.80
2010,06,02,11,55,1.60
2010,06,02,11,56,1.60
2010,06,02,11,57,4.80
2010,06,02,11,58,9.60
2010,06,02,11,59,8.10
2010,06,02,12,00,8.10
2010,06,02,12,01,8.10
2010,06,02,12,02,4.80
2010,06,02,12,03,9.60
2010,06,02,12,04,8.10
2010,06,02,12,05,8.10
2010,06,02,12,06,6.40
2010,06,02,12,07,8.10
2010,06,02,12,08,6.40
2010,06,02,12,09,6.40
2010,06,02,12,10,9.60
2010,06,02,12,11,11.30
2010,06,02,12,12,9.60
2010,06,02,12,13,9.60
2010,06,02,12,14,8.10
2010,06,02,12,15,12.90
2010,06,02,12,16,14.50
2010,06,02,12,17,11.30
2010,06,02,12,18,6.40
2010,06,02,12,19,9.60
2010,06,02,12,20,9.60
2010,06,02,12,21,6.40
2010,06,02,12,22,11.30
2010,06,02,12,23,11.30
2010,06,02,12,24,12.90
2010,06,02,12,25,12.90
2010,06,02,12,26,16.10
2010,06,02,12,27,11.30
2010,06,02,12,28,11.30
2010,06,02,12,29,14.50
2010,06,02,12,30,14.50
2010,06,02,12,31,14.50
2010,06,02,12,32,16.10
2010,06,02,12,33,14.50
2010,06,02,12,34,17.70
2010,06,02,12,35,19.30
2010,06,02,12,36,11.30
2010,06,02,12,37,14.50
2010,06,02,12,38,11.30
2010,06,02,12,39,17.70
2010,06,02,12,40,11.30
2010,06,02,12,41,11.30
2010,06,02,12,42,16.10
2010,06,02,12,43,17.70
2010,06,02,12,44,19.30
2010,06,02,12,45,17.70
2010,06,02,12,46,19.30
2010,06,02,12,47,19.30
2010,06,02,12,48,22.50
2010,06,02,12,49,19.30
2010,06,02,12,50,11.30
2010,06,02,12,51,16.10
2010,06,02,12,52,19.30
2010,06,02,12,53,19.30
2010,06,02,12,54,19.30
2010,06,02,12,55,22.50
2010,06,02,12,56,14.50
2010,06,02,12,57,16.10
2010,06,02,12,58,20.90
2010,06,02,12,59,17.70
2010,06,02,13,00,22.50
2010,06,02,13,01,20.90
2010,06,02,13,02,19.30
2010,06,02,13,03,22.50
2010,06,02,13,04,20.90
2010,06,02,13,05,16.10
2010,06,02,13,06,14.50
2010,06,02,13,07,19.30
2010,06,02,13,08,22.50
2010,06,02,13,09,16.10
2010,06,02,13,10,14.50
2010,06,02,13,11,19.30
2010,06,02,13,12,19.30
2010,06,02,13,13,16.10
2010,06,02,13,14,22.50
2010,06,02,13,15,20.90
2010,06,02,13,16,20.90
2010,06,02,13,17,22.50
2010,06,02,13,18,20.90
2010,06,02,13,19,22.50
2010,06,02,13,20,19.30
2010,06,02,13,21,22.50
2010,06,02,13,22,20.90
2010,06,02,13,23,17.70
2010,06,02,13,24,11.30
2010,06,02,13,25,11.30
2010,06,02,13,26,11.30
2010,06,02,13,27,11.30
2010,06,02,13,28,20.90
2010,06,02,13,29,16.10
2010,06,02,13,30,19.30
2010,06,02,13,31,17.70
2010,06,02,13,32,11.30
2010,06,02,13,33,11.30
2010,06,02,13,34,16.10
2010,06,02,13,35,11.30
2010,06,02,13,36,14.50
2010,06,02,13,37,11.30
2010,06,02,13,38,11.30
2010,06,02,13,39,9.60
2010,06,02,13,40,17.70
2010,06,02,13,41,16.10
2010,06,02,13,42,16.10
2010,06,02,13,43,8.10
2010,06,02,13,44,9.60
2010,06,02,13,45,22.50
2010,06,02,13,46,22.50
2010,06,02,13,47,22.50
2010,06,02,13,48,19.30
2010,06,02,13,49,19.30
2010,06,02,13,50,22.50
2010,06,02,13,51,20.90
2010,06,02,13,52,19.30
2010,06,02,13,53,27.40
2010,06,02,13,54,16.10
2010,06,02,13,55,20.90
2010,06,02,13,56,17.70
2010,06,02,13,57,33.80
2010,06,02,13,58,20.90
2010,06,02,13,59,17.70
2010,06,02,14,00,16.10
2010,06,02,14,01,11.30
2010,06,02,14,02,27.40
2010,06,02,14,03,19.30
2010,06,02,14,04,30.60
2010,06,02,14,05,29.00
2010,06,02,14,06,24.20
2010,06,02,14,07,19.30
2010,06,02,14,08,35.40
2010,06,02,14,09,30.60
2010,06,02,14,10,25.70
2010,06,02,14,11,30.60
2010,06,02,14,12,32.20
2010,06,02,14,13,29.00
2010,06,02,14,14,27.40
2010,06,02,14,15,27.40
2010,06,02,14,16,24.20
2010,06,02,14,17,24.20
2010,06,02,14,18,30.60
2010,06,02,14,19,22.50
2010,06,02,14,20,37.00
2010,06,02,14,21,33.80
2010,06,02,14,22,37.00
2010,06,02,14,23,33.80
2010,06,02,14,24,22.50
2010,06,02,14,25,22.50
2010,06,02,14,26,19.30
2010,06,02,14,27,20.90
2010,06,02,14,28,29.00
2010,06,02,14,29,29.00
2010,06,02,14,30,24.20
2010,06,02,14,31,20.90
2010,06,02,14,32,22.50
2010,06,02,14,33,17.70
2010,06,02,14,34,20.90
2010,06,02,14,35,35.40
2010,06,02,14,36,24.20
2010,06,02,14,37,24.20
2010,06,02,14,38,30.60
2010,06,02,14,39,22.50
2010,06,02,14,40,30.60
2010,06,02,14,41,24.20
2010,06,02,14,42,33.80
2010,06,02,14,43,20.90
2010,06,02,14,44,24.20
2010,06,02,14,45,17.70
2010,06,02,14,46,24.20
2010,06,02,14,47,35.40
2010,06,02,14,48,25.70
2010,06,02,14,49,22.50
2010,06,02,14,50,16.10
2010,06,02,14,51,20.90
2010,06,02,14,52,33.80
2010,06,02,14,53,29.00
2010,06,02,14,54,32.20
2010,06,02,14,55,29.00
2010,06,02,14,56,22.50
2010,06,02,14,57,19.30
2010,06,02,14,58,27.40
2010,06,02,14,59,33.80
2010,06,02,15,00,37.00
2010,06,02,15,01,38.60
2010,06,02,15,02,32.20
2010,06,02,15,03,16.10
2010,06,02,15,04,38.60
2010,06,02,15,05,38.60
2010,06,02,15,06,33.80
2010,06,02,15,07,35.40
2010,06,02,15,08,37.00
2010,06,02,15,09,32.20
2010,06,02,15,10,35.40
2010,06,02,15,11,30.60
2010,06,02,15,12,22.50
2010,06,02,15,13,38.60
2010,06,02,15,14,46.70
2010,06,02,15,15,38.60
2010,06,02,15,16,38.60
2010,06,02,15,17,40.20
2010,06,02,15,18,30.60
2010,06,02,15,19,49.90
2010,06,02,15,20,32.20
2010,06,02,15,21,38.60
2010,06,02,15,22,35.40
2010,06,02,15,23,41.80
2010,06,02,15,24,30.60
2010,06,02,15,25,32.20
2010,06,02,15,26,30.60
2010,06,02,15,27,32.20
2010,06,02,15,28,43.50
2010,06,02,15,29,40.20
2010,06,02,15,30,33.80
2010,06,02,15,31,29.00
2010,06,02,15,32,43.50
2010,06,02,15,33,37.00
2010,06,02,15,34,37.00
2010,06,02,15,35,38.60
2010,06,02,15,36,30.60
2010,06,02,15,37,30.60
2010,06,02,15,38,45.10
2010,06,02,15,39,48.30
2010,06,02,15,40,41.80
2010,06,02,15,41,30.60
2010,06,02,15,42,37.00
2010,06,02,15,43,38.60
2010,06,02,15,44,40.20
2010,06,02,15,45,33.80
2010,06,02,15,46,33.80
2010,06,02,15,47,35.40
2010,06,02,15,48,37.00
2010,06,02,15,49,37.00
2010,06,02,15,50,29.00
2010,06,02,15,51,24.20
2010,06,02,15,52,27.40
2010,06,02,15,53,30.60
2010,06,02,15,54,37.00
2010,06,02,15,55,32.20
2010,06,02,15,56,29.00
2010,06,02,15,57,33.80
2010,06,02,15,58,35.40
2010,06,02,15,59,37.00
2010,06,02,16,00,37.00
2010,06,02,16,01,30.60
2010,06,02,16,02,32.20
2010,06,02,16,03,41.80
2010,06,02,16,04,37.00
2010,06,02,16,05,27.40
2010,06,02,16,06,17.70
2010,06,02,16,07,27.40
2010,06,02,16,08,32.20
2010,06,02,16,09,35.40
2010,06,02,16,10,30.60
2010,06,02,16,11,43.50
2010,06,02,16,12,33.80
2010,06,02,16,13,27.40
2010,06,02,16,14,27.40
2010,06,02,16,15,49.90
2010,06,02,16,16,45.10
2010,06,02,16,17,43.50
2010,06,02,16,18,37.00
2010,06,02,16,19,49.90
2010,06,02,16,20,46.70
2010,06,02,16,21,35.40
2010,06,02,16,22,43.50
2010,06,02,16,23,37.00
2010,06,02,16,24,27.40
2010,06,02,16,25,45.10
2010,06,02,16,26,45.10
2010,06,02,16,27,33.80
2010,06,02,16,28,35.40
2010,06,02,16,29,45.10
2010,06,02,16,30,41.80
2010,06,02,16,31,37.00
2010,06,02,16,32,37.00
2010,06,02,16,33,41.80
2010,06,02,16,34,43.50
2010,06,02,16,35,35.40
2010,06,02,16,36,30.60
2010,06,02,16,37,40.20
2010,06,02,16,38,38.60
2010,06,02,16,39,35.40
2010,06,02,16,40,41.80
2010,06,02,16,41,33.80
2010,06,02,16,42,33.80
2010,06,02,16,43,37.00
2010,06,02,16,44,40.20
2010,06,02,16,45,43.50
2010,06,02,16,46,53.10
2010,06,02,16,47,38.60
2010,06,02,16,48,46.70
2010,06,02,16,49,45.10
2010,06,02,16,50,48.30
2010,06,02,16,51,46.70
2010,06,02,16,52,46.70
2010,06,02,16,53,45.10
2010,06,02,16,54,37.00
2010,06,02,16,55,38.60
2010,06,02,16,56,43.50
2010,06,02,16,57,41.80
2010,06,02,16,58,43.50
2010,06,02,16,59,38.60
2010,06,02,17,00,43.50
2010,06,02,17,01,33.80
2010,06,02,17,02,35.40
2010,06,02,17,03,46.70
2010,06,02,17,04,43.50
2010,06,02,17,05,29.00
2010,06,02,17,06,37.00
2010,06,02,17,07,49.90
2010,06,02,17,08,46.70
2010,06,02,17,09,48.30
2010,06,02,17,10,43.50
2010,06,02,17,11,53.10
2010,06,02,17,12,41.80
2010,06,02,17,13,48.30
2010,06,02,17,14,41.80
2010,06,02,17,15,45.10
2010,06,02,17,16,48.30
2010,06,02,17,17,30.60
2010,06,02,17,18,32.20
2010,06,02,17,19,46.70
2010,06,02,17,20,38.60
2010,06,02,17,21,43.50
2010,06,02,17,22,48.30
2010,06,02,17,23,53.10
2010,06,02,17,24,40.20
2010,06,02,17,25,46.70
2010,06,02,17,26,33.80
2010,06,02,17,27,32.20
2010,06,02,17,28,33.80
2010,06,02,17,29,48.30
2010,06,02,17,30,40.20
2010,06,02,17,31,45.10
2010,06,02,17,32,46.70
2010,06,02,17,33,46.70
2010,06,02,17,34,46.70
2010,06,02,17,35,53.10
2010,06,02,17,36,46.70
2010,06,02,17,37,40.20
2010,06,02,17,38,43.50
2010,06,02,17,39,38.60
2010,06,02,17,40,33.80
2010,06,02,17,41,27.40
2010,06,02,17,42,33.80
2010,06,02,17,43,53.10
2010,06,02,17,44,38.60
2010,06,02,17,45,43.50
2010,06,02,17,46,51.50
2010,06,02,17,47,40.20
2010,06,02,17,48,45.10
2010,06,02,17,49,41.80
2010,06,02,17,50,45.10
2010,06,02,17,51,41.80
2010,06,02,17,52,35.40
2010,06,02,17,53,40.20
2010,06,02,17,54,43.50
2010,06,02,17,55,30.60
2010,06,02,17,56,41.80
2010,06,02,17,57,41.80
2010,06,02,17,58,40.20
2010,06,02,17,59,37.00
2010,06,02,18,00,43.50
2010,06,02,18,01,37.00
2010,06,02,18,02,51.50
2010,06,02,18,03,53.10
2010,06,02,18,04,45.10
2010,06,02,18,05,62.70
2010,06,02,18,06,49.90
2010,06,02,18,07,46.70
2010,06,02,18,08,49.90
2010,06,02,18,09,53.10
2010,06,02,18,10,45.10
2010,06,02,18,11,53.10
2010,06,02,18,12,51.50
2010,06,02,18,13,48.30
2010,06,02,18,14,48.30
2010,06,02,18,15,45.10
2010,06,02,18,16,49.90
2010,06,02,18,17,37.00
2010,06,02,18,18,37.00
2010,06,02,18,19,38.60
2010,06,02,18,20,33.80
2010,06,02,18,21,49.90
2010,06,02,18,22,32.20
2010,06,02,18,23,45.10
2010,06,02,18,24,35.40
2010,06,02,18,25,32.20
2010,06,02,18,26,53.10
2010,06,02,18,27,49.90
2010,06,02,18,28,48.30
2010,06,02,18,29,40.20
2010,06,02,18,30,33.80
2010,06,02,18,31,56.30
2010,06,02,18,32,35.40
2010,06,02,18,33,43.50
2010,06,02,18,34,27.40
2010,06,02,18,35,35.40
2010,06,02,18,36,45.10
2010,06,02,18,37,51.50
2010,06,02,18,38,53.10
2010,06,02,18,39,51.50
2010,06,02,18,40,45.10
2010,06,02,18,41,43.50
2010,06,02,18,42,43.50
2010,06,02,18,43,40.20
2010,06,02,18,44,38.60
2010,06,02,18,45,48.30
2010,06,02,18,46,45.10
2010,06,02,18,47,38.60
2010,06,02,18,48,32.20
2010,06,02,18,49,35.40
2010,06,02,18,50,49.90
2010,06,02,18,51,48.30
2010,06,02,18,52,46.70
2010,06,02,18,53,49.90
2010,06,02,18,54,49.90
2010,06,02,18,55,37.00
2010,06,02,18,56,43.50
2010,06,02,18,57,51.50
2010,06,02,18,58,37.00
2010,06,02,18,59,37.00
2010,06,02,19,00,46.70
2010,06,02,19,01,35.40
2010,06,02,19,02,35.40
2010,06,02,19,03,38.60
2010,06,02,19,04,37.00
2010,06,02,19,05,37.00
2010,06,02,19,06,32.20
2010,06,02,19,07,43.50